TimeEET,TemperatureF,Dew PointF,Humidity,Sea Level PressureIn,VisibilityMPH,Wind Direction,Wind SpeedMPH,Gust SpeedMPH,PrecipitationIn,Events,Conditions,WindDirDegrees,DateUTC
12:20 AM,48.2,39.2,71,29.98,6.2,NNW,8.1,-,N/A,,Scattered Clouds,340,2013-03-03 22:20:00
12:50 AM,48.2,39.2,71,29.98,6.2,North,5.8,-,N/A,,Partly Cloudy,350,2013-03-03 22:50:00
1:20 AM,46.4,37.4,71,29.98,6.2,North,8.1,-,N/A,,Partly Cloudy,360,2013-03-03 23:20:00
1:50 AM,48.2,37.4,66,29.98,6.2,North,4.6,-,N/A,,Partly Cloudy,350,2013-03-03 23:50:00
2:20 AM,46.4,37.4,71,29.98,6.2,NNW,4.6,-,N/A,,Partly Cloudy,340,2013-03-04 00:20:00
2:50 AM,46.4,37.4,71,29.98,6.2,NNW,3.5,-,N/A,,Partly Cloudy,340,2013-03-04 00:50:00
3:20 AM,46.4,35.6,66,30.01,6.2,NNW,4.6,-,N/A,,Partly Cloudy,340,2013-03-04 01:20:00
3:50 AM,46.4,35.6,66,30.01,6.2,Variable,3.5,-,N/A,,Partly Cloudy,0,2013-03-04 01:50:00
4:20 AM,44.6,35.6,71,30.01,6.2,North,5.8,-,N/A,,Partly Cloudy,10,2013-03-04 02:20:00
4:50 AM,44.6,35.6,71,30.01,6.2,NNW,5.8,-,N/A,,Partly Cloudy,330,2013-03-04 02:50:00
5:20 AM,44.6,33.8,66,30.01,6.2,Variable,3.5,-,N/A,,Partly Cloudy,0,2013-03-04 03:20:00
5:50 AM,41.0,32.0,70,30.01,6.2,Variable,3.5,-,N/A,,Partly Cloudy,0,2013-03-04 03:50:00
6:20 AM,39.2,32.0,75,30.01,6.2,Variable,3.5,-,N/A,,Partly Cloudy,0,2013-03-04 04:20:00
6:50 AM,41.0,32.0,70,30.04,6.2,West,4.6,-,N/A,,Partly Cloudy,260,2013-03-04 04:50:00
7:20 AM,41.0,32.0,70,30.04,6.2,WSW,4.6,-,N/A,,Partly Cloudy,250,2013-03-04 05:20:00
7:50 AM,42.8,33.8,70,30.04,6.2,WSW,3.5,-,N/A,,Partly Cloudy,250,2013-03-04 05:50:00
8:20 AM,44.6,35.6,71,30.04,-9999.0,WNW,5.8,-,N/A,,Clear,300,2013-03-04 06:20:00
8:50 AM,50.0,39.2,66,30.06,-9999.0,Variable,1.2,-,N/A,,Clear,0,2013-03-04 06:50:00
9:20 AM,53.6,39.2,58,30.06,6.2,Variable,1.2,-,N/A,,Partly Cloudy,0,2013-03-04 07:20:00
9:50 AM,53.6,35.6,51,30.06,6.2,Variable,2.3,-,N/A,,Partly Cloudy,0,2013-03-04 07:50:00
10:20 AM,53.6,35.6,51,30.06,6.2,Variable,3.5,-,N/A,,Partly Cloudy,0,2013-03-04 08:20:00
10:50 AM,55.4,39.2,54,30.06,6.2,East,4.6,-,N/A,,Scattered Clouds,80,2013-03-04 08:50:00
11:20 AM,55.4,39.2,54,30.06,6.2,NE,12.7,-,N/A,,Scattered Clouds,50,2013-03-04 09:20:00
11:50 AM,55.4,41.0,58,30.06,6.2,NE,12.7,-,N/A,,Scattered Clouds,50,2013-03-04 09:50:00
12:20 PM,57.2,41.0,55,30.06,6.2,NE,11.5,-,N/A,,Scattered Clouds,40,2013-03-04 10:20:00
12:50 PM,55.4,41.0,58,30.06,6.2,ENE,11.5,-,N/A,,Scattered Clouds,70,2013-03-04 10:50:00
1:20 PM,57.2,41.0,55,30.06,6.2,ENE,11.5,-,N/A,,Scattered Clouds,70,2013-03-04 11:20:00
1:50 PM,55.4,39.2,54,30.06,6.2,ENE,10.4,-,N/A,,Mostly Cloudy,60,2013-03-04 11:50:00
2:20 PM,57.2,41.0,55,30.06,6.2,ENE,10.4,-,N/A,,Mostly Cloudy,70,2013-03-04 12:20:00
2:50 PM,57.2,41.0,55,30.06,6.2,ENE,10.4,-,N/A,,Scattered Clouds,60,2013-03-04 12:50:00
3:20 PM,55.4,42.8,63,30.06,6.2,ENE,10.4,-,N/A,,Scattered Clouds,60,2013-03-04 13:20:00
3:50 PM,55.4,44.6,67,30.06,6.2,ENE,6.9,-,N/A,,Scattered Clouds,70,2013-03-04 13:50:00
4:20 PM,55.4,44.6,67,30.06,6.2,ENE,6.9,-,N/A,,Scattered Clouds,60,2013-03-04 14:20:00
4:50 PM,53.6,42.8,67,30.06,6.2,East,5.8,-,N/A,,Scattered Clouds,80,2013-03-04 14:50:00
5:20 PM,55.4,42.8,63,30.09,6.2,ENE,4.6,-,N/A,,Scattered Clouds,70,2013-03-04 15:20:00
5:50 PM,53.6,42.8,67,30.09,6.2,ENE,5.8,-,N/A,,Partly Cloudy,70,2013-03-04 15:50:00
6:20 PM,53.6,41.0,62,30.09,6.2,NNE,6.9,-,N/A,,Scattered Clouds,30,2013-03-04 16:20:00
6:50 PM,50.0,41.0,71,30.12,6.2,NE,4.6,-,N/A,,Partly Cloudy,40,2013-03-04 16:50:00
7:20 PM,50.0,39.2,66,30.12,6.2,North,2.3,-,N/A,,Partly Cloudy,350,2013-03-04 17:20:00
7:50 PM,50.0,39.2,66,30.12,-9999.0,West,3.5,-,N/A,,Clear,270,2013-03-04 17:50:00
8:20 PM,48.2,39.2,71,30.12,-9999.0,West,3.5,-,N/A,,Clear,260,2013-03-04 18:20:00
8:50 PM,48.2,39.2,71,30.15,-9999.0,WSW,3.5,-,N/A,,Clear,250,2013-03-04 18:50:00
9:20 PM,46.4,37.4,71,30.15,-9999.0,West,4.6,-,N/A,,Clear,260,2013-03-04 19:20:00
9:50 PM,44.6,37.4,76,30.15,-9999.0,Calm,Calm,-,N/A,,Clear,0,2013-03-04 19:50:00
10:20 PM,44.6,37.4,76,30.15,-9999.0,West,2.3,-,N/A,,Clear,280,2013-03-04 20:20:00
10:50 PM,39.2,37.4,93,30.18,-9999.0,Variable,2.3,-,N/A,,Clear,0,2013-03-04 20:50:00
11:20 PM,41.0,37.4,87,30.18,-9999.0,NW,3.5,-,N/A,,Clear,310,2013-03-04 21:20:00
11:50 PM,41.0,37.4,87,30.18,-9999.0,West,3.5,-,N/A,,Clear,280,2013-03-04 21:50:00